Location: Newark
(48.5156°N, 1.8989°W)
Time: 23:48:40
(UTC+00:00)

Transit 4A - Pass Details

Date: 24 November 2019
Orbit: 870 x 975 km, 66.8° (Epoch: 12 December)

Event Time Altitude Azimuth Distance (km) Brightness Sun altitude
Exits shadow 04:22:01 31° 5° (N) 1,503 9.0 -30.3°
Maximum altitude 04:23:49 39° 42° (NE) 1,312 8.9 -30.0°
Drops below altitude 10° 04:29:14 10° 110° (ESE) 2,522 11.0 -29.1°
Sets 04:31:52 0° 119° (ESE) 3,452 11.8 -28.7°
